Weather in Playa Ancon

Cuba     21°45′29″N   79°59′17″W
temp.,
°C
wind,
m/s
gust,
m/s
humid.,
%
clouds,
%
prec.,
mm/h
press.,
hPa
HPBL,
m
28 february, sun
sun2801:00+23ene712836 0.0 1019752
04:00+23ene5108620 0.0 1018672
07:00+23ene6118613 0.0 1019740
10:00+27e8126814 0.1 10201323
13:00+28se911638 0.1 10181068
16:00+27sse67680 0.0 1016552
19:00+25e13740 0.0 1017234
22:00+24ene711730 0.0 1019740
1 march, mon
mon101:00+23ene712840 0.0 1018763
04:00+22ene610887 0.0 1016698
07:00+22ene6108924 0.0 1018684
10:00+25e797174 0.0 1019983
13:00+27se776548 0.0 1017750
16:00+27ssw33630 0.0 1015457
19:00+25wsw22741 0.0 1016161
22:00+24ene127526 0.0 1018229
2 march, tue
tue201:00+23ene578122 0.0 1017462
04:00+22ene57854 0.0 1016382
07:00+21ene58894 0.0 1017419
10:00+25e57676 0.0 1018929
13:00+26sse66653 0.0 1017782
16:00+26s33610 0.0 1014467
19:00+25nnw23650 0.0 1015141
22:00+23ne47760 0.0 1017351
3 march, wed
wed301:00+22ene57811 0.0 1016350
04:00+21ene45870 0.0 1015314
07:00+21ene34907 0.0 1016222
10:00+24se23766 0.0 1017451
13:00+26ssw44703 0.0 1016489
16:00+26sw45660 0.0 1014717
19:00+25wsw34770 0.0 1015470
22:00+24wnw34800 0.1 1016352
4 march, thu
thu401:00+23wnw23820 0.1 1015395
04:00+23nw23820 0.1 1014337
07:00+22n22810 0.1 1015136
10:00+26s21660 0.0 1016537
13:00+26wsw55650 0.0 1014598
16:00+26w68620 0.1 1013720
19:00+24wnw45698 0.1 1014507
22:00+22ne34841 0.0 1015221